sat.trackr.live / text

‹ back to catalog

STARLINK-33752

NORAD 63580 · 2025-076M

PAYLOAD ACTIVE UNKNOWN

§ Identity

Operator
Country
US
Launch date
2025-04-14
Launch site
AFETR
Launch vehicle
Mass (kg)
RCS (m²)

Purposes: comms

External: N2YO · Heavens-Above · Gunter

§ Orbital elements

Epoch: 2026-09-20T10:34:08.662656Z

Period
94.27 min
Inclination
43.0026°
Eccentricity
0.0002425
Mean motion
15.27592853 rev/d
Perigee alt
481.3 km
Apogee alt
484.7 km
Semi-major
6,861.1 km
B*
6.1182e-4
RAAN
301.9641°
Arg perigee
272.6868°
Mean anomaly
87.3707°
Rev number
8,161

§ Raw data

STARLINK-337521 63580U 25076M   26263.44037804  .00016619  00000+0  61182-3 0  99942 63580  43.0026 301.9641 0002425 272.6868  87.3707 15.27592853 81610

JSON: /api/v1/satellites/63580 · /tle

For live sub-satellite position, see the globe view (requires WebGL).

§ Visibility from observer

Set your observer location to see the next 7 days of passes ≥ 10°. The values pass through the URL so the page stays shareable.

No JS? Fill the form by hand. The geolocation button needs JavaScript.